User: anonymous   Login
Location: Unspecified
(0.0000°N, 0.0000°E)
Time: 01:23:09
(UTC+00:00)
Language:

Optus B3 - Orbit

View from above orbital plane
View from above orbital plane
View from above satellite
View from above satellite

Ground track
Ground track

The orbit data is extracted from the following two-line orbital elements,

1 23227U 94055A   16241.63774640 -.00000110  00000-0  00000+0 0  9992
2 23227   6.9309  52.3461 0003902 126.8163 191.9393  1.00273164 80543
Epoch (UTC): 28 August 2016 15:18:21
Eccentricity: 0.0003902
inclination: 6.9309°
perigee height: 35769 km
apogee height: 35802 km
right ascension of ascending node: 52.3461°
argument of perigee: 126.8163°
revolutions per day: 1.00273164
mean anomaly at epoch: 191.9393°
orbit number at epoch: 8054

The dashed part of the orbit path shows where the satellite is in the earth's shadow,  

DLR